Weather History for Russellville, AR

Change the Weather History Date:

Sunday, May 19, 2013

  Actual Average (KHOT) Record (KHOT)
Temperature  
Mean Temperature 79 °F -  
Max Temperature 89 °F 83 °F 94 °F (1956)
Min Temperature 69 °F 59 °F 43 °F (2002)
Cooling Degree Days 14    
Growing Degree Days 29 (Base 50)    
Moisture  
Dew Point 68 °F    
Average Humidity 75    
Maximum Humidity 94    
Minimum Humidity 48    
Precipitation  
Precipitation 0.00 in - - ()
Sea Level Pressure  
Sea Level Pressure 29.82 in    
Wind  
Wind Speed 2 mph (SSE)    
Max Wind Speed 10 mph    
Max Gust Speed 16 mph    
Visibility 7 miles    
Events      
Averages and records for this station are not official NWS values.
T = Trace of Precipitation, MM = Missing Value Source: NWS Daily Summary

Daily Weather History Graph

Daily Weather History Graph

Search for Another Location

Airport:

Trip Planner

Search our weather history database for the weather conditions in past years. The results will help you decide how hot, cold, wet, or windy it might be!

Date:

Astronomy

May. 19, 2013 Rise Set
Actual Time 6:05 AM CDT 8:12 PM CDT
Civil Twilight 5:36 AM CDT 8:41 PM CDT
Nautical Twilight 5:01 AM CDT 9:16 PM CDT
Astronomical Twilight 4:24 AM CDT 9:54 PM CDT
Moon 2:30 PM CDT (5/19) 2:15 AM CDT (5/19)
Length of Visible Light 15h 04m
Length of Day
14h 07m
Waxing Gibbous, 65% of the Moon is Illuminated
May 19
Waxing Gibbous
May 24
Full
May 31
Last Quarter
Jun 8
New
Jun 16
First Quarter

Hourly Weather History & Observations

Time (CDT) Temp. Heat Index Dew Point Humidity Pressure Visibility Wind Dir Wind Speed Gust Speed Precip Events Conditions
12:53 AM 73.0 °F - 70.0 °F 90% 29.85 in 6.0 mi Calm Calm - N/A   Clear
1:53 AM 71.1 °F - 69.1 °F 93% 29.84 in 4.0 mi Calm Calm - N/A   Clear
2:53 AM 71.1 °F - 69.1 °F 93% 29.84 in 4.0 mi Calm Calm - N/A   Clear
3:53 AM 70.0 °F - 68.0 °F 93% 29.84 in 2.0 mi Calm Calm - N/A   Clear
4:46 AM 69.8 °F - 68.0 °F 94% 29.85 in 4.0 mi Calm Calm - N/A   Clear
4:53 AM 70.0 °F - 68.0 °F 93% 29.83 in 3.0 mi Calm Calm - N/A   Clear
5:53 AM 71.1 °F - 69.1 °F 93% 29.84 in 3.0 mi Calm Calm - N/A   Clear
6:16 AM 69.8 °F - 68.0 °F 94% 29.87 in 1.5 mi Calm Calm - N/A   Clear
6:48 AM 69.8 °F - 68.0 °F 94% 29.88 in 2.0 mi Calm Calm - N/A   Clear
7:05 AM 69.8 °F - 68.0 °F 94% 29.89 in 2.5 mi Calm Calm - N/A   Clear
7:24 AM 73.4 °F - 69.8 °F 88% 29.89 in 4.0 mi Calm Calm - N/A   Clear
7:53 AM 75.0 °F - 70.0 °F 84% 29.86 in 8.0 mi SSE 3.5 mph - N/A   Clear
8:53 AM 75.9 °F - 68.0 °F 76% 29.87 in 10.0 mi Calm Calm - N/A   Clear
9:53 AM 77.0 °F - 66.0 °F 69% 29.87 in 10.0 mi South 8.1 mph - N/A   Clear
10:53 AM 79.0 °F - 66.0 °F 64% 29.86 in 10.0 mi South 5.8 mph - N/A   Unknown
11:53 AM 82.0 °F 84.1 °F 66.0 °F 58% 29.84 in 10.0 mi Variable 5.8 mph - N/A   Clear
12:53 PM 84.9 °F 86.6 °F 64.9 °F 51% 29.82 in 10.0 mi SSE 10.4 mph 16.1 mph N/A   Clear
3:53 PM 88.0 °F 91.4 °F 68.0 °F 51% 29.77 in 10.0 mi Variable 4.6 mph - N/A   Unknown
4:53 PM 89.1 °F 92.1 °F 66.9 °F 48% 29.75 in 10.0 mi SE 8.1 mph - N/A   Clear
5:53 PM 87.1 °F 89.9 °F 66.9 °F 51% 29.73 in 10.0 mi South 6.9 mph - N/A   Clear
6:53 PM 84.9 °F 88.2 °F 68.0 °F 57% 29.74 in 10.0 mi Variable 4.6 mph - N/A   Clear
7:53 PM 82.9 °F 85.4 °F 66.9 °F 58% 29.75 in 10.0 mi Calm Calm - N/A   Clear
8:53 PM 81.0 °F 83.3 °F 66.9 °F 62% 29.76 in 10.0 mi Calm Calm - N/A   Clear
9:53 PM 80.1 °F 82.3 °F 66.9 °F 64% 29.77 in 10.0 mi SSE 3.5 mph - N/A   Clear
11:53 PM 79.0 °F - 66.9 °F 66% 29.78 in 10.0 mi Calm Calm - N/A   Clear